VOYAGER:1:PRINTED,ON:,24-OCT-01:13:04:19:GROUP11
START_TIME,STOP_TIME,SECTOR,SCAN_DIR,E44RATE,E44UNC,E45RATE,E45UNC,E37RATE,E37UNC,P31RATE,P31UNC
1979-03-18 00:05:43.610 ,1979-03-18 00:06:07.610 ,9,0,163.,3.50,4.79,0.576,0.125,7.217E-02,72.7,2.37
1979-03-18 00:05:56.210 ,1979-03-18 00:06:02.150 ,7,-1,168.,5.92,-1.00,-1.00,-1.00,-1.00,67.7,3.47
1979-03-18 00:06:02.590 ,1979-03-18 00:06:26.150 ,6,-1,147.,2.60,5.57,0.538,-1.00,-1.00,65.1,1.67
1979-03-18 00:06:26.590 ,1979-03-18 00:06:50.150 ,5,-1,144.,2.50,4.79,0.499,-1.00,-1.00,72.3,1.80
1979-03-18 00:06:50.590 ,1979-03-18 00:07:14.150 ,4,-1,50.1,1.52,4.48,0.483,-1.00,-1.00,51.1,1.48
1979-03-18 00:07:14.590 ,1979-03-18 00:07:38.150 ,3,-1,188.,3.02,6.04,0.561,-1.00,-1.00,79.1,1.88
1979-03-18 00:07:38.590 ,1979-03-18 00:08:02.150 ,2,-1,211.,3.04,7.55,0.627,-1.00,-1.00,86.2,1.95
1979-03-18 00:08:02.210 ,1979-03-18 00:08:26.590 ,1,-1,209.,4.95,7.78,0.734,-1.00,-1.00,92.1,3.57
1979-03-18 00:08:26.590 ,1979-03-18 00:08:50.150 ,1,1,217.,3.05,7.81,0.637,-1.00,-1.00,91.8,2.05
1979-03-18 00:08:50.590 ,1979-03-18 00:09:14.150 ,2,1,237.,3.22,7.08,0.607,-1.00,-1.00,97.0,2.08
1979-03-18 00:09:14.590 ,1979-03-18 00:09:38.150 ,3,1,222.,3.12,8.13,0.650,-1.00,-1.00,96.7,2.04
1979-03-18 00:09:38.590 ,1979-03-18 00:10:02.150 ,4,1,70.7,1.86,5.73,0.546,-1.00,-1.00,62.7,1.66
1979-03-18 00:10:02.590 ,1979-03-18 00:10:26.150 ,5,1,246.,3.35,9.06,0.687,-1.00,-1.00,106.,2.17
1979-03-18 00:10:26.590 ,1979-03-18 00:10:50.150 ,6,1,262.,3.36,7.24,0.613,-1.00,-1.00,103.,2.09
1979-03-18 00:10:50.590 ,1979-03-18 00:11:14.150 ,7,1,254.,3.33,7.19,0.611,-1.00,-1.00,104.,2.11
1979-03-18 00:11:14.590 ,1979-03-18 00:11:56.150 ,8,1,259.,2.55,7.71,0.478,-1.00,-1.00,86.0,1.47
1979-03-18 00:11:56.210 ,1979-03-18 00:12:02.150 ,8,-1,296.,6.98,4.79,0.999,-1.00,-1.00,95.3,3.86
1979-03-18 00:12:02.590 ,1979-03-18 00:12:26.150 ,7,-1,306.,3.83,9.32,0.696,-1.00,-1.00,120.,2.31
1979-03-18 00:12:26.590 ,1979-03-18 00:12:50.150 ,6,-1,338.,3.80,11.8,0.782,-1.00,-1.00,130.,2.40
1979-03-18 00:12:50.590 ,1979-03-18 00:13:14.150 ,5,-1,318.,3.73,12.0,0.790,-1.00,-1.00,137.,2.42
1979-03-18 00:13:14.590 ,1979-03-18 00:13:38.150 ,4,-1,94.7,2.09,7.50,0.625,-1.00,-1.00,81.7,1.90
1979-03-18 00:13:38.590 ,1979-03-18 00:14:02.150 ,3,-1,299.,3.69,9.84,0.715,-1.00,-1.00,132.,2.42
1979-03-18 00:14:02.590 ,1979-03-18 00:14:26.150 ,2,-1,331.,3.78,10.7,0.744,-1.00,-1.00,136.,2.41
1979-03-18 00:14:26.210 ,1979-03-18 00:14:50.590 ,1,-1,325.,6.19,10.6,0.858,-1.00,-1.00,126.,3.94
1979-03-18 00:14:50.590 ,1979-03-18 00:15:14.150 ,1,1,319.,3.73,10.2,0.729,-1.00,-1.00,130.,2.39
1979-03-18 00:15:14.590 ,1979-03-18 00:15:38.150 ,2,1,336.,3.83,11.0,0.757,-1.00,-1.00,136.,2.41
1979-03-18 00:15:38.590 ,1979-03-18 00:16:02.150 ,3,1,341.,3.83,12.2,0.796,-1.00,-1.00,130.,2.40
1979-03-18 00:16:02.590 ,1979-03-18 00:16:26.150 ,4,1,89.7,2.03,6.46,0.579,-1.00,-1.00,76.5,1.84
1979-03-18 00:16:26.590 ,1979-03-18 00:16:50.150 ,5,1,319.,3.84,11.4,0.770,-1.00,-1.00,135.,2.45
1979-03-18 00:16:50.590 ,1979-03-18 00:17:14.150 ,6,1,345.,3.88,10.4,0.736,-1.00,-1.00,133.,2.40
1979-03-18 00:17:14.590 ,1979-03-18 00:17:38.150 ,7,1,336.,3.83,9.48,0.702,-1.00,-1.00,134.,2.39
1979-03-18 00:17:38.590 ,1979-03-18 00:18:20.150 ,8,1,327.,2.86,9.70,0.537,-1.00,-1.00,112.,1.71
1979-03-18 00:18:20.210 ,1979-03-18 00:18:26.150 ,8,-1,321.,7.28,10.4,1.47,-1.00,-1.00,119.,4.30
1979-03-18 00:18:26.590 ,1979-03-18 00:18:50.150 ,7,-1,334.,3.81,9.90,0.717,-1.00,-1.00,139.,2.47
1979-03-18 00:18:50.590 ,1979-03-18 00:19:14.150 ,6,-1,341.,3.84,11.6,0.777,-1.00,-1.00,141.,2.45
1979-03-18 00:19:14.590 ,1979-03-18 00:19:38.150 ,5,-1,339.,3.81,11.7,0.778,-1.00,-1.00,139.,2.47
1979-03-18 00:19:38.590 ,1979-03-18 00:20:02.150 ,4,-1,101.,2.16,6.87,0.598,-1.00,-1.00,89.6,1.99
1979-03-18 00:20:02.590 ,1979-03-18 00:20:26.150 ,3,-1,319.,3.83,9.79,0.713,-1.00,-1.00,138.,2.48
1979-03-18 00:20:26.590 ,1979-03-18 00:20:50.150 ,2,-1,335.,3.82,11.6,0.777,-1.00,-1.00,139.,2.43
1979-03-18 00:20:50.210 ,1979-03-18 00:21:14.590 ,1,-1,325.,6.19,11.2,0.880,-1.00,-1.00,133.,4.07
1979-03-18 00:21:14.590 ,1979-03-18 00:21:38.150 ,1,1,322.,3.72,10.4,0.736,-1.00,-1.00,139.,2.42
1979-03-18 00:21:38.590 ,1979-03-18 00:22:02.150 ,2,1,344.,3.87,10.8,0.750,-1.00,-1.00,133.,2.43
1979-03-18 00:22:02.590 ,1979-03-18 00:22:26.150 ,3,1,337.,3.79,10.8,0.750,-1.00,-1.00,131.,2.42
1979-03-18 00:22:26.590 ,1979-03-18 00:22:50.150 ,4,1,96.7,2.11,7.19,0.611,-1.00,-1.00,85.7,2.06
1979-03-18 00:22:50.590 ,1979-03-18 00:23:14.150 ,5,1,376.,4.29,11.1,0.761,-1.00,-1.00,139.,2.48
1979-03-18 00:23:14.590 ,1979-03-18 00:23:38.150 ,6,1,380.,4.03,11.3,0.766,-1.00,-1.00,149.,2.52
1979-03-18 00:23:38.590 ,1979-03-18 00:24:02.150 ,7,1,344.,3.86,10.7,0.746,-1.00,-1.00,133.,2.38
1979-03-18 00:24:02.590 ,1979-03-18 00:24:44.150 ,8,1,316.,2.81,9.29,0.525,-1.00,-1.00,109.,1.63
1979-03-18 00:24:44.210 ,1979-03-18 00:24:50.150 ,8,-1,319.,7.27,8.54,1.33,-1.00,-1.00,103.,4.28
1979-03-18 00:24:50.590 ,1979-03-18 00:25:14.150 ,7,-1,334.,3.81,10.9,0.752,-1.00,-1.00,136.,2.42
1979-03-18 00:25:14.590 ,1979-03-18 00:25:38.150 ,6,-1,357.,3.91,11.5,0.773,-1.00,-1.00,133.,2.44
1979-03-18 00:25:38.590 ,1979-03-18 00:26:02.150 ,5,-1,345.,3.88,12.5,0.807,-1.00,-1.00,144.,2.47
1979-03-18 00:26:02.590 ,1979-03-18 00:26:26.150 ,4,-1,106.,2.21,7.24,0.613,-1.00,-1.00,88.8,1.96
1979-03-18 00:26:26.590 ,1979-03-18 00:26:50.150 ,3,-1,339.,3.91,10.4,0.736,-1.00,-1.00,132.,2.41
1979-03-18 00:26:50.590 ,1979-03-18 00:27:14.150 ,2,-1,337.,3.84,10.4,0.734,-1.00,-1.00,127.,2.33
1979-03-18 00:27:14.210 ,1979-03-18 00:27:38.590 ,1,-1,315.,6.11,10.6,0.858,-1.00,-1.00,124.,4.14
1979-03-18 00:27:38.590 ,1979-03-18 00:28:02.150 ,1,1,305.,3.63,9.74,0.712,-1.00,-1.00,120.,2.27
1979-03-18 00:28:02.590 ,1979-03-18 00:28:26.150 ,2,1,315.,3.69,8.85,0.678,-1.00,-1.00,120.,2.30
1979-03-18 00:28:26.590 ,1979-03-18 00:28:50.150 ,3,1,304.,3.61,8.07,0.648,-1.00,-1.00,116.,2.22
1979-03-18 00:28:50.590 ,1979-03-18 00:29:14.150 ,4,1,88.6,2.02,5.78,0.548,-1.00,-1.00,74.5,1.82
1979-03-18 00:29:14.590 ,1979-03-18 00:29:38.150 ,5,1,319.,3.84,10.8,0.748,-1.00,-1.00,128.,2.38
1979-03-18 00:29:38.590 ,1979-03-18 00:30:02.150 ,6,1,342.,3.85,9.58,0.705,-1.00,-1.00,125.,2.36
1979-03-18 00:30:02.590 ,1979-03-18 00:30:26.150 ,7,1,323.,3.73,9.84,0.715,-1.00,-1.00,118.,2.25
1979-03-18 00:30:26.590 ,1979-03-18 00:31:08.150 ,8,1,297.,2.78,8.45,0.501,-1.00,-1.00,94.4,1.53
1979-03-18 00:31:08.210 ,1979-03-18 00:31:14.150 ,8,-1,301.,7.06,6.67,1.18,-1.00,-1.00,93.4,3.81
1979-03-18 00:31:14.590 ,1979-03-18 00:31:38.150 ,7,-1,308.,3.65,8.65,0.670,-1.00,-1.00,114.,2.29
1979-03-18 00:31:38.590 ,1979-03-18 00:32:02.150 ,6,-1,296.,3.70,9.69,0.710,-1.00,-1.00,120.,2.27
1979-03-18 00:32:02.590 ,1979-03-18 00:32:26.150 ,5,-1,264.,3.38,11.3,0.765,-1.00,-1.00,115.,2.29
1979-03-18 00:32:26.590 ,1979-03-18 00:32:50.150 ,4,-1,71.3,1.82,5.21,0.521,-1.00,-1.00,69.4,1.79
1979-03-18 00:32:50.590 ,1979-03-18 00:33:14.150 ,3,-1,232.,3.27,7.60,0.629,-1.00,-1.00,104.,2.19
1979-03-18 00:33:14.590 ,1979-03-18 00:33:38.150 ,2,-1,221.,3.11,7.50,0.625,-1.00,-1.00,101.,2.09
1979-03-18 00:33:38.210 ,1979-03-18 00:34:02.590 ,1,-1,236.,5.28,7.99,0.744,-1.00,-1.00,98.8,3.50
1979-03-18 00:34:02.590 ,1979-03-18 00:34:26.150 ,1,1,229.,3.14,7.60,0.629,-1.00,-1.00,105.,2.12
1979-03-18 00:34:26.590 ,1979-03-18 00:34:50.150 ,2,1,232.,3.19,8.02,0.645,-1.00,-1.00,107.,2.13
1979-03-18 00:34:50.590 ,1979-03-18 00:35:14.150 ,3,1,236.,3.21,8.44,0.662,-1.00,-1.00,98.0,2.08
1979-03-18 00:35:14.590 ,1979-03-18 00:35:38.150 ,4,1,79.1,1.90,5.57,0.538,-1.00,-1.00,65.4,1.74
1979-03-18 00:35:38.590 ,1979-03-18 00:36:02.150 ,5,1,214.,3.14,8.07,0.648,-1.00,-1.00,103.,2.18
1979-03-18 00:36:02.590 ,1979-03-18 00:36:26.150 ,6,1,238.,3.20,8.70,0.673,-1.00,-1.00,98.1,2.09
1979-03-18 00:36:26.590 ,1979-03-18 00:36:50.150 ,7,1,236.,3.21,6.72,0.591,-1.00,-1.00,95.2,2.05
1979-03-18 00:36:50.590 ,1979-03-18 00:37:32.150 ,8,1,218.,2.31,6.85,0.451,-1.00,-1.00,77.9,1.40
1979-03-18 00:37:32.210 ,1979-03-18 00:37:38.150 ,8,-1,207.,5.86,8.75,1.35,-1.00,-1.00,72.8,3.37
1979-03-18 00:37:38.590 ,1979-03-18 00:38:02.150 ,7,-1,202.,2.97,7.50,0.625,-1.00,-1.00,89.3,1.95
1979-03-18 00:38:02.590 ,1979-03-18 00:38:26.150 ,6,-1,204.,2.97,7.71,0.634,-1.00,-1.00,88.3,1.94
1979-03-18 00:38:26.590 ,1979-03-18 00:38:50.150 ,5,-1,187.,2.86,5.31,0.525,-1.00,-1.00,83.9,1.90
1979-03-18 00:38:50.590 ,1979-03-18 00:39:14.150 ,4,-1,57.8,1.63,3.44,0.423,-1.00,-1.00,51.9,1.55
1979-03-18 00:39:14.590 ,1979-03-18 00:39:38.150 ,3,-1,194.,2.97,6.67,0.589,-1.00,-1.00,81.4,1.87
1979-03-18 00:39:38.590 ,1979-03-18 00:40:02.150 ,2,-1,205.,2.99,6.35,0.575,-1.00,-1.00,88.8,1.99
1979-03-18 00:40:02.210 ,1979-03-18 00:40:26.590 ,1,-1,191.,4.76,7.08,0.701,-1.00,-1.00,88.1,3.32
1979-03-18 00:40:26.590 ,1979-03-18 00:40:50.150 ,1,1,202.,2.97,6.87,0.598,-1.00,-1.00,84.5,1.90
1979-03-18 00:40:50.590 ,1979-03-18 00:41:14.150 ,2,1,201.,2.96,5.83,0.551,-1.00,-1.00,87.1,1.93
1979-03-18 00:41:14.590 ,1979-03-18 00:41:38.150 ,3,1,186.,2.85,5.63,0.541,-1.00,-1.00,82.5,1.88
1979-03-18 00:41:38.590 ,1979-03-18 00:42:02.150 ,4,1,55.0,1.59,3.59,0.432,-1.00,-1.00,49.8,1.54
1979-03-18 00:42:02.590 ,1979-03-18 00:42:26.150 ,5,1,187.,2.92,7.34,0.617,-1.00,-1.00,77.4,1.92
1979-03-18 00:42:26.590 ,1979-03-18 00:42:50.150 ,6,1,204.,2.97,6.98,0.602,-1.00,-1.00,87.0,1.93
1979-03-18 00:42:50.590 ,1979-03-18 00:43:14.150 ,7,1,198.,2.95,6.09,0.563,-1.00,-1.00,82.6,1.91
1979-03-18 00:43:14.590 ,1979-03-18 00:43:56.150 ,8,1,194.,2.21,5.89,0.418,-1.00,-1.00,70.7,1.33
1979-03-18 00:44:44.210 ,1979-03-18 00:45:08.210 ,9,0,185.,2.77,6.96,0.538,0.208,9.316E-02,81.5,1.83
1979-03-18 00:45:08.210 ,1979-03-18 00:45:14.150 ,5,-1,187.,5.57,6.46,1.16,-1.00,-1.00,85.0,3.64
1979-03-18 00:45:14.590 ,1979-03-18 00:45:38.150 ,4,-1,51.3,1.54,4.01,0.457,-1.00,-1.00,48.7,1.50
1979-03-18 00:45:38.590 ,1979-03-18 00:46:02.150 ,3,-1,171.,2.80,5.21,0.521,-1.00,-1.00,74.0,1.81
1979-03-18 00:46:02.590 ,1979-03-18 00:46:26.150 ,2,-1,189.,2.87,6.09,0.563,-1.00,-1.00,80.2,1.88
1979-03-18 00:46:26.210 ,1979-03-18 00:46:50.590 ,1,-1,184.,4.66,6.04,0.648,-1.00,-1.00,75.6,3.23
1979-03-18 00:46:50.590 ,1979-03-18 00:47:14.150 ,1,1,193.,2.89,6.25,0.570,-1.00,-1.00,83.1,1.88
1979-03-18 00:47:14.590 ,1979-03-18 00:47:38.150 ,2,1,189.,2.86,6.72,0.591,-1.00,-1.00,78.7,1.83
1979-03-18 00:47:38.590 ,1979-03-18 00:48:02.150 ,3,1,167.,2.69,5.16,0.518,-1.00,-1.00,73.8,1.77
1979-03-18 00:48:02.590 ,1979-03-18 00:48:26.150 ,4,1,51.4,1.54,2.92,0.390,-1.00,-1.00,46.9,1.42
1979-03-18 00:48:26.590 ,1979-03-18 00:48:50.150 ,5,1,179.,2.87,5.52,0.536,-1.00,-1.00,79.1,1.84
1979-03-18 00:48:50.590 ,1979-03-18 00:49:14.150 ,6,1,192.,2.88,6.77,0.594,-1.00,-1.00,79.3,1.87
1979-03-18 00:49:14.590 ,1979-03-18 00:49:38.150 ,7,1,184.,2.90,6.82,0.596,-1.00,-1.00,77.7,1.86
1979-03-18 00:49:38.590 ,1979-03-18 00:50:20.150 ,8,1,181.,2.13,5.54,0.406,-1.00,-1.00,64.0,1.27
1979-03-18 00:50:20.210 ,1979-03-18 00:50:26.150 ,8,-1,172.,5.35,4.17,0.932,-1.00,-1.00,60.2,3.06
1979-03-18 00:50:26.590 ,1979-03-18 00:50:50.150 ,7,-1,178.,2.86,5.63,0.541,-1.00,-1.00,73.6,1.80
1979-03-18 00:50:50.590 ,1979-03-18 00:51:14.150 ,6,-1,178.,2.78,6.09,0.563,-1.00,-1.00,77.7,1.82
1979-03-18 00:51:14.590 ,1979-03-18 00:51:38.150 ,5,-1,164.,2.67,5.05,0.512,-1.00,-1.00,72.6,1.76
1979-03-18 00:51:38.590 ,1979-03-18 00:52:02.150 ,4,-1,50.6,1.52,3.39,0.419,-1.00,-1.00,44.6,1.41
1979-03-18 00:52:02.590 ,1979-03-18 00:52:26.150 ,3,-1,165.,2.76,5.89,0.554,-1.00,-1.00,76.7,1.84
1979-03-18 00:52:26.590 ,1979-03-18 00:52:50.150 ,2,-1,197.,2.92,7.14,0.609,-1.00,-1.00,87.8,1.93
1979-03-18 00:52:50.210 ,1979-03-18 00:53:14.590 ,1,-1,189.,4.73,6.18,0.655,-1.00,-1.00,83.9,3.41
1979-03-18 00:53:14.590 ,1979-03-18 00:53:38.150 ,1,1,193.,2.89,6.61,0.586,-1.00,-1.00,88.4,1.98
1979-03-18 00:53:38.590 ,1979-03-18 00:54:02.150 ,2,1,187.,2.84,6.82,0.596,-1.00,-1.00,86.3,1.93
1979-03-18 00:54:02.590 ,1979-03-18 00:54:26.150 ,3,1,189.,2.86,5.94,0.556,-1.00,-1.00,76.1,1.83
1979-03-18 00:54:26.590 ,1979-03-18 00:54:50.150 ,4,1,54.3,1.58,4.43,0.480,-1.00,-1.00,49.8,1.49
1979-03-18 00:54:50.590 ,1979-03-18 00:55:14.150 ,5,1,188.,2.94,6.72,0.591,-1.00,-1.00,88.8,1.99
1979-03-18 00:55:14.590 ,1979-03-18 00:55:38.150 ,6,1,200.,2.93,7.14,0.609,-1.00,-1.00,96.4,2.06
1979-03-18 00:55:38.590 ,1979-03-18 00:56:02.150 ,7,1,200.,2.93,7.14,0.609,-1.00,-1.00,92.3,2.02
1979-03-18 00:56:02.590 ,1979-03-18 00:56:44.150 ,8,1,201.,2.23,6.43,0.437,-1.00,-1.00,74.1,1.35
1979-03-18 00:56:44.210 ,1979-03-18 00:56:50.150 ,8,-1,202.,5.78,6.46,1.16,-1.00,-1.00,74.7,3.41
1979-03-18 00:56:50.590 ,1979-03-18 00:57:14.150 ,7,-1,193.,2.89,7.50,0.625,-1.00,-1.00,95.3,2.06
1979-03-18 00:57:14.590 ,1979-03-18 00:57:38.150 ,6,-1,205.,2.98,7.29,0.615,-1.00,-1.00,92.3,2.02
1979-03-18 00:57:38.590 ,1979-03-18 00:58:02.150 ,5,-1,215.,3.06,6.87,0.598,-1.00,-1.00,92.3,1.99
1979-03-18 00:58:02.590 ,1979-03-18 00:58:26.150 ,4,-1,65.4,1.74,4.69,0.494,-1.00,-1.00,59.7,1.62
1979-03-18 00:58:26.590 ,1979-03-18 00:58:50.150 ,3,-1,208.,3.09,7.34,0.617,-1.00,-1.00,94.0,2.04
1979-03-18 00:58:50.590 ,1979-03-18 00:59:14.150 ,2,-1,211.,3.03,8.18,0.652,-1.00,-1.00,98.3,2.09
1979-03-18 00:59:14.210 ,1979-03-18 00:59:38.590 ,1,-1,206.,5.35,9.03,0.791,-1.00,-1.00,91.3,3.36
1979-03-18 00:59:38.590 ,1979-03-18 00:00:02.150 ,1,1,213.,3.03,7.81,0.637,-1.00,-1.00,95.4,2.06
1979-03-18 01:00:02.590 ,1979-03-18 01:00:26.150 ,2,1,218.,3.07,8.59,0.669,-1.00,-1.00,100.,2.07
1979-03-18 01:00:26.590 ,1979-03-18 01:00:50.150 ,3,1,200.,2.93,6.93,0.600,-1.00,-1.00,92.5,2.00
1979-03-18 01:00:50.590 ,1979-03-18 01:01:14.150 ,4,1,63.5,1.71,4.95,0.507,-1.00,-1.00,58.4,1.58
1979-03-18 01:01:14.590 ,1979-03-18 01:01:38.150 ,5,1,214.,3.15,6.87,0.598,-1.00,-1.00,95.6,2.06
1979-03-18 01:01:38.590 ,1979-03-18 01:02:02.150 ,6,1,226.,3.15,7.55,0.627,-1.00,-1.00,102.,2.13
1979-03-18 01:02:02.590 ,1979-03-18 01:02:26.150 ,7,1,225.,3.13,7.14,0.609,-1.00,-1.00,99.4,2.07
1979-03-18 01:02:26.590 ,1979-03-18 01:03:08.150 ,8,1,226.,2.37,6.85,0.451,-1.00,-1.00,81.2,1.43
1979-03-18 01:03:08.210 ,1979-03-18 01:03:14.150 ,8,-1,217.,5.99,7.50,1.25,-1.00,-1.00,78.3,3.49
1979-03-18 01:03:14.590 ,1979-03-18 01:03:38.150 ,7,-1,227.,3.23,8.33,0.658,-1.00,-1.00,101.,2.12
1979-03-18 01:03:38.590 ,1979-03-18 01:04:02.150 ,6,-1,226.,3.15,6.98,0.602,-1.00,-1.00,101.,2.08
1979-03-18 01:04:02.590 ,1979-03-18 01:04:26.150 ,5,-1,218.,3.07,7.55,0.627,-1.00,-1.00,98.6,2.05
1979-03-18 01:04:26.590 ,1979-03-18 01:04:50.150 ,4,-1,62.5,1.70,3.91,0.451,-1.00,-1.00,62.2,1.63
1979-03-18 01:04:50.590 ,1979-03-18 01:05:14.150 ,3,-1,209.,3.10,7.14,0.609,-1.00,-1.00,92.6,2.03
1979-03-18 01:05:14.590 ,1979-03-18 01:05:38.150 ,2,-1,226.,3.14,7.97,0.644,-1.00,-1.00,98.5,2.05
1979-03-18 01:05:38.210 ,1979-03-18 01:06:02.590 ,1,-1,229.,5.19,7.50,0.721,-1.00,-1.00,102.,3.75
1979-03-18 01:06:02.590 ,1979-03-18 01:06:26.150 ,1,1,220.,3.10,7.24,0.613,-1.00,-1.00,101.,2.07
1979-03-18 01:06:26.590 ,1979-03-18 01:06:50.150 ,2,1,225.,3.13,8.39,0.660,-1.00,-1.00,104.,2.15
1979-03-18 01:06:50.590 ,1979-03-18 01:07:14.150 ,3,1,204.,2.96,7.81,0.637,-1.00,-1.00,95.1,2.05
1979-03-18 01:07:14.590 ,1979-03-18 01:07:38.150 ,4,1,63.6,1.71,5.36,0.528,-1.00,-1.00,55.8,1.57
1979-03-18 01:07:38.590 ,1979-03-18 01:08:02.150 ,5,1,210.,3.09,6.46,0.579,-1.00,-1.00,96.3,2.03
1979-03-18 01:08:02.590 ,1979-03-18 01:08:26.150 ,6,1,228.,3.14,8.23,0.654,-1.00,-1.00,115.,2.22
1979-03-18 01:08:26.590 ,1979-03-18 01:08:50.150 ,7,1,223.,3.10,8.07,0.648,-1.00,-1.00,102.,2.12
1979-03-18 01:08:50.590 ,1979-03-18 01:09:32.150 ,8,1,215.,2.32,6.73,0.447,-1.00,-1.00,81.1,1.42
1979-03-18 01:09:32.210 ,1979-03-18 01:09:38.150 ,8,-1,221.,6.05,3.96,0.908,-1.00,-1.00,84.6,3.88
1979-03-18 01:09:38.590 ,1979-03-18 01:10:02.150 ,7,-1,224.,3.19,8.70,0.673,-1.00,-1.00,101.,2.08
1979-03-18 01:10:02.590 ,1979-03-18 01:10:26.150 ,6,-1,247.,3.28,10.7,0.746,-1.00,-1.00,122.,2.37
1979-03-18 01:10:26.590 ,1979-03-18 01:10:50.150 ,5,-1,256.,3.32,10.5,0.738,-1.00,-1.00,119.,2.30
1979-03-18 01:10:50.590 ,1979-03-18 01:11:14.150 ,4,-1,83.3,1.95,5.16,0.518,-1.00,-1.00,68.2,1.74
1979-03-18 01:11:14.590 ,1979-03-18 01:11:38.150 ,3,-1,276.,3.54,9.64,0.708,-1.00,-1.00,123.,2.37
1979-03-18 01:11:38.590 ,1979-03-18 01:12:02.150 ,2,-1,311.,3.69,13.1,0.823,-1.00,-1.00,140.,2.50
1979-03-18 01:12:02.210 ,1979-03-18 01:12:26.590 ,1,-1,265.,5.58,9.44,0.809,-1.00,-1.00,126.,3.97
1979-03-18 01:12:26.590 ,1979-03-18 01:12:50.150 ,1,1,274.,3.43,11.8,0.783,-1.00,-1.00,138.,2.44
1979-03-18 01:12:50.590 ,1979-03-18 01:13:14.150 ,2,1,376.,4.06,13.8,0.848,-1.00,-1.00,156.,2.58
1979-03-18 01:13:14.590 ,1979-03-18 01:13:38.150 ,3,1,333.,3.80,11.4,0.770,-1.00,-1.00,146.,2.49
1979-03-18 01:13:38.590 ,1979-03-18 01:14:02.150 ,4,1,94.4,2.08,6.61,0.586,-1.00,-1.00,88.9,1.95
1979-03-18 01:14:02.590 ,1979-03-18 01:14:26.150 ,5,1,310.,3.77,11.5,0.772,-1.00,-1.00,147.,2.55
1979-03-18 01:14:26.590 ,1979-03-18 01:14:50.150 ,6,1,316.,3.70,11.3,0.765,-1.00,-1.00,140.,2.45
1979-03-18 01:14:50.590 ,1979-03-18 01:15:14.150 ,7,1,319.,3.94,11.5,0.773,-1.00,-1.00,147.,2.50
1979-03-18 01:15:14.590 ,1979-03-18 01:15:56.150 ,8,1,381.,3.10,10.8,0.565,-1.00,-1.00,135.,1.87
1979-03-18 01:15:56.210 ,1979-03-18 01:16:02.150 ,8,-1,413.,8.27,10.6,1.49,-1.00,-1.00,134.,4.57
1979-03-18 01:16:02.590 ,1979-03-18 01:16:26.150 ,7,-1,342.,3.85,10.0,0.720,-1.00,-1.00,148.,2.51
1979-03-18 01:16:26.590 ,1979-03-18 01:16:50.150 ,6,-1,324.,3.94,12.0,0.790,-1.00,-1.00,145.,2.54
1979-03-18 01:16:50.590 ,1979-03-18 01:17:14.150 ,5,-1,356.,3.90,11.0,0.756,-1.00,-1.00,151.,2.62
1979-03-18 01:17:14.590 ,1979-03-18 01:17:38.150 ,4,-1,102.,2.17,8.13,0.650,-1.00,-1.00,91.1,2.01
1979-03-18 01:17:38.590 ,1979-03-18 01:18:02.150 ,3,-1,395.,4.26,12.2,0.796,-1.00,-1.00,160.,2.66
1979-03-18 01:18:02.590 ,1979-03-18 01:18:26.150 ,2,-1,388.,4.12,11.5,0.773,-1.00,-1.00,148.,2.53
1979-03-18 01:18:26.210 ,1979-03-18 01:18:50.590 ,1,-1,371.,6.62,11.3,0.882,-1.00,-1.00,157.,4.41
1979-03-18 01:18:50.590 ,1979-03-18 01:19:14.150 ,1,1,374.,4.15,11.8,0.783,-1.00,-1.00,156.,2.59
1979-03-18 01:19:14.590 ,1979-03-18 01:19:38.150 ,2,1,379.,4.15,11.4,0.770,-1.00,-1.00,150.,2.67
1979-03-18 01:19:38.590 ,1979-03-18 01:20:02.150 ,3,1,373.,4.02,11.0,0.756,-1.00,-1.00,145.,2.49
1979-03-18 01:20:02.590 ,1979-03-18 01:20:26.150 ,4,1,107.,2.22,7.19,0.611,-1.00,-1.00,89.8,1.99
1979-03-18 01:20:26.590 ,1979-03-18 01:20:44.150 ,5,1,391.,5.19,11.5,0.892,-1.00,-1.00,155.,3.10
1979-03-18 01:22:20.210 ,1979-03-18 01:22:44.210 ,9,0,379.,3.96,10.6,0.664,4.167E-02,4.167E-02,141.,2.41
1979-03-18 01:22:44.210 ,1979-03-18 01:22:50.150 ,7,-1,392.,8.02,13.1,1.65,-1.00,-1.00,157.,4.94
1979-03-18 01:22:50.590 ,1979-03-18 01:23:14.150 ,6,-1,418.,4.24,12.5,0.807,-1.00,-1.00,165.,2.66
1979-03-18 01:23:14.590 ,1979-03-18 01:23:38.150 ,5,-1,412.,4.25,13.5,0.838,-1.00,-1.00,163.,2.63
1979-03-18 01:23:38.590 ,1979-03-18 01:24:02.150 ,4,-1,104.,2.19,5.83,0.551,-1.00,-1.00,91.0,2.09
1979-03-18 01:24:02.590 ,1979-03-18 01:24:26.150 ,3,-1,353.,4.02,11.3,0.765,-1.00,-1.00,148.,2.56
1979-03-18 01:24:26.590 ,1979-03-18 01:24:50.150 ,2,-1,366.,4.00,9.69,0.710,-1.00,-1.00,154.,2.60
1979-03-18 01:24:50.210 ,1979-03-18 01:25:14.590 ,1,-1,338.,6.34,11.4,0.888,-1.00,-1.00,148.,4.29
1979-03-18 01:25:14.590 ,1979-03-18 01:25:38.150 ,1,1,359.,3.93,11.1,0.759,-1.00,-1.00,149.,2.57
1979-03-18 01:25:38.590 ,1979-03-18 01:26:02.150 ,2,1,381.,4.05,12.9,0.818,-1.00,-1.00,154.,2.62
1979-03-18 01:26:02.590 ,1979-03-18 01:26:26.150 ,3,1,376.,4.06,11.6,0.777,-1.00,-1.00,156.,2.58
1979-03-18 01:26:26.590 ,1979-03-18 01:26:50.150 ,4,1,110.,2.24,6.04,0.561,-1.00,-1.00,89.6,1.99
1979-03-18 01:26:50.590 ,1979-03-18 01:27:14.150 ,5,1,393.,4.24,12.1,0.916,-1.00,-1.00,156.,2.68
1979-03-18 01:27:14.590 ,1979-03-18 01:27:38.150 ,6,1,402.,4.15,12.1,0.794,-1.00,-1.00,158.,2.69
1979-03-18 01:27:38.590 ,1979-03-18 01:28:02.150 ,7,1,389.,4.07,11.0,0.757,-1.00,-1.00,154.,2.61
1979-03-18 01:28:02.590 ,1979-03-18 01:28:44.150 ,8,1,369.,3.00,9.58,0.533,-1.00,-1.00,125.,1.78
1979-03-18 01:28:44.210 ,1979-03-18 01:28:50.150 ,8,-1,372.,7.85,8.96,1.36,-1.00,-1.00,113.,4.19
1979-03-18 01:28:50.590 ,1979-03-18 01:29:14.150 ,7,-1,384.,4.08,11.1,0.759,-1.00,-1.00,159.,2.61
1979-03-18 01:29:14.590 ,1979-03-18 01:29:38.150 ,6,-1,434.,4.34,11.3,0.765,-1.00,-1.00,163.,2.65
1979-03-18 01:29:38.590 ,1979-03-18 01:30:02.150 ,5,-1,412.,4.24,13.6,0.842,-1.00,-1.00,160.,2.63
1979-03-18 01:30:02.590 ,1979-03-18 01:30:26.150 ,4,-1,113.,2.28,6.61,0.586,-1.00,-1.00,94.4,2.05
1979-03-18 01:30:26.590 ,1979-03-18 01:30:50.150 ,3,-1,402.,4.39,12.9,0.818,-1.00,-1.00,159.,2.60
1979-03-18 01:30:50.590 ,1979-03-18 01:31:14.150 ,2,-1,399.,4.18,13.9,0.849,-1.00,-1.00,161.,2.67
1979-03-18 01:31:14.210 ,1979-03-18 01:31:38.590 ,1,-1,387.,6.77,11.5,0.892,-1.00,-1.00,166.,4.53
1979-03-18 01:31:38.590 ,1979-03-18 01:32:02.150 ,1,1,378.,4.01,10.7,0.746,-1.00,-1.00,158.,2.59
1979-03-18 01:32:02.590 ,1979-03-18 01:32:26.150 ,2,1,422.,4.42,12.1,0.793,-1.00,-1.00,162.,2.79
1979-03-18 01:32:26.590 ,1979-03-18 01:32:50.150 ,3,1,401.,4.14,11.0,0.756,-1.00,-1.00,159.,2.65
1979-03-18 01:32:50.590 ,1979-03-18 01:33:14.150 ,4,1,113.,2.28,6.35,0.575,-1.00,-1.00,91.5,2.02
1979-03-18 01:33:14.590 ,1979-03-18 01:33:32.150 ,5,1,419.,5.17,11.3,1.08,-1.00,-1.00,165.,3.28
1979-03-18 01:33:32.210 ,1979-03-18 01:33:56.210 ,9,0,420.,4.53,12.5,0.807,8.333E-02,5.892E-02,164.,2.80
1979-03-18 01:33:56.210 ,1979-03-18 01:34:20.210 ,9,0,421.,4.15,11.9,0.703,0.292,0.110,167.,2.64
1979-03-18 01:34:20.210 ,1979-03-18 01:34:26.150 ,7,1,428.,8.43,11.5,1.54,-1.00,-1.00,163.,5.03
1979-03-18 01:34:26.590 ,1979-03-18 01:35:08.150 ,8,1,424.,3.25,10.1,0.549,-1.00,-1.00,133.,1.82
1979-03-18 01:35:08.210 ,1979-03-18 01:35:14.150 ,8,-1,419.,8.31,11.9,1.57,-1.00,-1.00,133.,4.56
1979-03-18 01:35:14.590 ,1979-03-18 01:35:38.150 ,7,-1,426.,4.26,12.7,0.812,-1.00,-1.00,161.,2.66
1979-03-18 01:35:38.590 ,1979-03-18 01:36:02.150 ,6,-1,434.,4.34,12.0,0.790,-1.00,-1.00,164.,2.64
1979-03-18 01:36:02.590 ,1979-03-18 01:36:26.150 ,5,-1,394.,4.13,13.2,0.829,-1.00,-1.00,157.,2.64
1979-03-18 01:36:26.590 ,1979-03-18 01:36:50.150 ,4,-1,106.,2.20,6.30,0.572,-1.00,-1.00,92.6,2.03
1979-03-18 01:36:50.590 ,1979-03-18 01:37:14.150 ,3,-1,392.,4.23,12.5,0.932,-1.00,-1.00,154.,2.67
1979-03-18 01:37:14.590 ,1979-03-18 01:37:38.150 ,2,-1,422.,4.28,13.4,0.836,-1.00,-1.00,163.,2.64
1979-03-18 01:37:38.210 ,1979-03-18 01:38:02.590 ,1,-1,423.,7.07,11.8,0.904,-1.00,-1.00,168.,4.55
1979-03-18 01:38:02.590 ,1979-03-18 01:38:26.150 ,1,1,412.,4.25,13.6,0.842,-1.00,-1.00,163.,2.68
1979-03-18 01:38:26.590 ,1979-03-18 01:38:50.150 ,2,1,418.,4.24,13.5,0.838,-1.00,-1.00,164.,2.64
1979-03-18 01:38:50.590 ,1979-03-18 01:39:14.150 ,3,1,370.,4.10,12.7,0.812,-1.00,-1.00,155.,2.57
1979-03-18 01:39:14.590 ,1979-03-18 01:39:38.150 ,4,1,110.,2.25,7.14,0.609,-1.00,-1.00,93.4,2.07
1979-03-18 01:39:38.590 ,1979-03-18 01:40:02.150 ,5,1,396.,4.26,13.6,0.842,-1.00,-1.00,159.,2.65
1979-03-18 01:40:02.590 ,1979-03-18 01:40:26.150 ,6,1,427.,4.27,14.4,0.866,-1.00,-1.00,167.,2.67
1979-03-18 01:40:26.590 ,1979-03-18 01:40:50.150 ,7,1,426.,4.26,11.7,0.778,-1.00,-1.00,166.,2.67
1979-03-18 01:40:50.590 ,1979-03-18 01:41:32.150 ,8,1,425.,3.25,10.5,0.558,-1.00,-1.00,139.,1.87
1979-03-18 01:41:32.210 ,1979-03-18 01:41:38.150 ,8,-1,433.,8.46,12.1,1.59,-1.00,-1.00,133.,4.56
1979-03-18 01:41:38.590 ,1979-03-18 01:42:02.150 ,7,-1,425.,4.31,13.0,0.822,-1.00,-1.00,166.,2.70
1979-03-18 01:42:02.590 ,1979-03-18 01:42:26.150 ,6,-1,416.,4.23,12.9,0.819,-1.00,-1.00,163.,2.73
1979-03-18 01:42:26.590 ,1979-03-18 01:42:50.150 ,5,-1,387.,4.11,12.7,0.812,-1.00,-1.00,165.,2.66
1979-03-18 01:42:50.590 ,1979-03-18 01:43:14.150 ,4,-1,107.,2.21,5.63,0.541,-1.00,-1.00,101.,2.08
1979-03-18 01:43:14.590 ,1979-03-18 01:43:38.150 ,3,-1,364.,4.10,11.0,0.875,-1.00,-1.00,153.,2.60